Home > Weather > Sondershausen > Past weeks

Flag for Germany Past Weather in Sondershausen, Thuringia, Germany — Yesterday and Last 2 Weeks

Now
75 °F

Sunny.


Feels Like: 78 °F
Forecast: 56 / 72 °F
Wind: 14 mph from West

Location: Erfurt-Bindersleben

Current Time: Jul 30, 2016 at 5:01:22 PM

Latest Report: Jul 30, 2016 at 4:20 PM


Visibility: 10 mi

Pressure: 29.92 "Hg

Humidity: 54%

Dew Point: 57 °F

Location of SondershausenLocation

Past Weather in Sondershausen — Graph

°F

Sondershausen Temperature Yesterday

Maximum temperature yesterday: 73 °F (at 1:20 PM)
Minimum temperature yesterday: 59 °F (at 4:20 AM)
Average temperature yesterday: 65 °F

High & Low Weather Summary for the Past Weeks

 TemperatureHumidityPressure
High88 °F (Jul 20, 2:50 PM)100% (Jul 17, 11:50 PM)30.30 "Hg (Jul 17, 11:50 PM)
Low46 °F (Jul 16, 4:50 AM)27% (Jul 20, 2:50 PM)29.89 "Hg (Jul 21, 5:20 AM)
Average69 °F73%30.08 "Hg
* Reported Jul 15 3:20 PM — Jul 30 3:50 PM, Sondershausen, Weather by CustomWeather, © 2016

Note: Actual official high and low records may vary slightly from our data, if they occured in-between our weather recording intervals... More about our weather records

Advertising

Sondershausen Weather History for the Previous 24 Hours

Scroll right to see more
 ConditionsComfort  
Time TempWeatherWind HumidityBarometerVisibility
3:50 PM
Sat, Jul 30
73 °FPassing clouds.15 mph53%29.92 "HgN/A
3:20 PM73 °FScattered clouds.14 mph53%29.92 "HgN/A
2:50 PM73 °FScattered clouds.17 mph53%29.92 "HgN/A
2:20 PM73 °FScattered clouds.18 mph57%29.92 "HgN/A
1:50 PM72 °FScattered clouds.15 mph61%29.92 "HgN/A
1:20 PM72 °FScattered clouds.15 mph61%29.92 "HgN/A
12:50 PM72 °FPassing clouds.15 mph57%29.92 "HgN/A
12:20 PM72 °FPassing clouds.17 mph61%29.92 "HgN/A
11:50 AM73 °FScattered showers. Scattered clouds.16 mph61%29.92 "HgN/A
11:20 AM72 °FScattered clouds.15 mph65%29.92 "HgN/A
10:50 AM70 °FScattered clouds.14 mph73%29.92 "HgN/A
10:20 AM70 °FScattered clouds.8 mph78%29.92 "HgN/A
9:50 AM68 °FScattered clouds.7 mph78%29.92 "HgN/A
9:20 AM68 °FPartly sunny.5 mph83%29.92 "HgN/A
8:50 AM66 °FScattered clouds.7 mph83%29.92 "HgN/A
8:20 AM64 °FSunny.6 mph88%29.92 "Hg10 mi
7:50 AM63 °FScattered clouds.7 mph88%29.92 "HgN/A
7:20 AM61 °FSunny.6 mph94%29.92 "Hg10 mi
6:50 AM61 °FPartly sunny.7 mph94%29.92 "HgN/A
6:20 AM61 °FPartly cloudy.8 mph94%29.92 "HgN/A
5:50 AM59 °FPassing clouds.8 mph94%29.92 "HgN/A
5:20 AM59 °FPassing clouds.8 mph94%29.92 "HgN/A
4:50 AM59 °FClear.8 mph94%29.95 "Hg10 mi
4:20 AM61 °FClear.8 mph88%29.95 "Hg10 mi
3:50 AM61 °FClear.8 mph94%29.95 "Hg10 mi
3:20 AM59 °FClear.7 mph94%29.95 "Hg10 mi
2:50 AM61 °FClear.8 mph94%29.95 "Hg10 mi
2:20 AM61 °FClear.9 mph94%29.95 "Hg10 mi
1:50 AM61 °FClear.8 mph94%29.95 "Hg10 mi
1:20 AM63 °FClear.6 mph88%29.95 "Hg10 mi
12:50 AM61 °FClear.7 mph94%29.95 "Hg10 mi
12:20 AM61 °FPassing clouds.7 mph94%29.95 "HgN/A
11:50 PM
Fri, Jul 29
61 °FPassing clouds.7 mph94%29.95 "HgN/A
11:20 PM61 °FClear.7 mph94%29.95 "Hg10 mi
10:50 PM61 °FPassing clouds.3 mph94%29.95 "HgN/A
10:20 PM63 °FClear.8 mph88%29.95 "Hg10 mi
9:50 PM64 °FSunny.8 mph88%29.92 "Hg10 mi
9:20 PM64 °FScattered showers. Partly sunny.9 mph94%29.92 "HgN/A
8:50 PM64 °FSprinkles. Partly sunny.8 mph94%29.92 "HgN/A
8:20 PM64 °FRain showers. Partly sunny.9 mph94%29.92 "Hg2 mi
7:50 PM66 °FScattered showers. Partly sunny.6 mph88%29.92 "HgN/A
7:20 PM66 °FBroken clouds.6 mph88%29.92 "HgN/A
6:50 PM68 °FBroken clouds.7 mph83%29.92 "HgN/A
6:20 PM64 °FSprinkles. Broken clouds.8 mph88%29.92 "HgN/A
5:50 PM64 °FRain. Partly sunny.12 mph83%29.92 "HgN/A
5:20 PM66 °FSprinkles. Broken clouds.13 mph78%29.95 "HgN/A
Weather by CustomWeather, © 2016

See weather overviewHow to use our weather pages